TimePDT,TemperatureF,Dew PointF,Humidity,Sea Level PressureIn,VisibilityMPH,Wind Direction,Wind SpeedMPH,Gust SpeedMPH,PrecipitationIn,Events,Conditions,WindDirDegrees,DateUTC
12:15 AM,46.4,42.8,87,30.16,10.0,SSW,5.8,-,N/A,,Clear,210,2013-04-28 07:15:00
12:35 AM,46.4,41.0,81,30.16,10.0,SSW,8.1,-,N/A,,Clear,210,2013-04-28 07:35:00
12:55 AM,48.2,39.2,71,30.16,10.0,SW,6.9,-,N/A,,Clear,220,2013-04-28 07:55:00
1:15 AM,48.2,39.2,71,30.16,10.0,SSW,9.2,-,N/A,,Clear,200,2013-04-28 08:15:00
1:35 AM,48.2,39.2,71,30.16,10.0,SW,8.1,-,N/A,,Clear,220,2013-04-28 08:35:00
1:55 AM,48.2,39.2,71,30.16,10.0,SW,5.8,-,N/A,,Clear,220,2013-04-28 08:55:00
2:15 AM,46.4,39.2,76,30.16,10.0,SSW,5.8,-,N/A,,Clear,210,2013-04-28 09:15:00
2:35 AM,48.2,37.4,66,30.16,10.0,Calm,Calm,-,N/A,,Clear,0,2013-04-28 09:35:00
2:55 AM,46.4,37.4,71,30.16,10.0,SW,3.5,-,N/A,,Clear,220,2013-04-28 09:55:00
3:15 AM,46.4,37.4,71,30.16,10.0,Calm,Calm,-,N/A,,Clear,0,2013-04-28 10:15:00
3:35 AM,46.4,37.4,71,30.16,10.0,Calm,Calm,-,N/A,,Clear,0,2013-04-28 10:35:00
3:55 AM,44.6,37.4,76,30.17,10.0,SSW,3.5,-,N/A,,Clear,210,2013-04-28 10:55:00
4:15 AM,44.6,37.4,76,30.17,10.0,SSW,8.1,-,N/A,,Clear,210,2013-04-28 11:15:00
4:35 AM,44.6,37.4,76,30.17,10.0,SSW,4.6,-,N/A,,Clear,210,2013-04-28 11:35:00
4:55 AM,44.6,37.4,76,30.17,10.0,North,-9999.0,-,N/A,,Clear,0,2013-04-28 11:55:00
5:15 AM,44.6,37.4,76,30.17,10.0,SSW,5.8,-,N/A,,Scattered Clouds,210,2013-04-28 12:15:00
5:35 AM,44.6,37.4,76,30.17,10.0,Calm,Calm,-,N/A,,Scattered Clouds,0,2013-04-28 12:35:00
5:55 AM,42.8,37.4,81,30.17,10.0,SSW,6.9,-,N/A,,Mostly Cloudy,210,2013-04-28 12:55:00
6:15 AM,44.6,37.4,76,30.16,10.0,SSW,4.6,-,N/A,,Overcast,210,2013-04-28 13:15:00
6:35 AM,44.6,37.4,76,30.16,10.0,Calm,Calm,-,N/A,,Scattered Clouds,0,2013-04-28 13:35:00
6:55 AM,46.4,37.4,71,30.17,10.0,Calm,Calm,-,N/A,,Clear,0,2013-04-28 13:55:00
7:15 AM,46.4,37.4,71,30.17,10.0,Calm,Calm,-,N/A,,Partly Cloudy,0,2013-04-28 14:15:00
7:35 AM,48.2,37.4,66,30.17,10.0,SW,3.5,-,N/A,,Scattered Clouds,220,2013-04-28 14:35:00
7:55 AM,48.2,37.4,66,30.17,10.0,SW,5.8,-,N/A,,Scattered Clouds,220,2013-04-28 14:55:00
8:15 AM,48.2,39.2,71,30.17,10.0,South,4.6,-,N/A,,Scattered Clouds,190,2013-04-28 15:15:00
8:35 AM,50.0,39.2,66,30.17,10.0,SSE,3.5,-,N/A,,Partly Cloudy,160,2013-04-28 15:35:00
8:55 AM,48.2,39.2,71,30.18,10.0,SSW,8.1,-,N/A,,Partly Cloudy,200,2013-04-28 15:55:00
9:35 AM,51.8,37.4,58,30.18,10.0,SSW,8.1,-,N/A,,Mostly Cloudy,210,2013-04-28 16:35:00
9:55 AM,50.0,37.4,62,30.18,10.0,West,8.1,-,N/A,,Overcast,280,2013-04-28 16:55:00
10:35 AM,51.8,37.4,58,30.18,10.0,WSW,5.8,-,N/A,,Overcast,240,2013-04-28 17:35:00
10:55 AM,51.8,37.4,58,30.17,10.0,WSW,4.6,-,N/A,,Overcast,250,2013-04-28 17:55:00
11:15 AM,51.8,35.6,54,30.17,10.0,WNW,5.8,-,N/A,,Overcast,290,2013-04-28 18:15:00
11:35 AM,51.8,39.2,62,30.16,10.0,South,4.6,-,N/A,,Overcast,170,2013-04-28 18:35:00
11:55 AM,51.8,41.0,67,30.16,10.0,SE,3.5,-,N/A,,Overcast,130,2013-04-28 18:55:00
12:15 PM,53.6,41.0,62,30.15,10.0,SE,5.8,-,N/A,,Overcast,140,2013-04-28 19:15:00
12:35 PM,53.6,41.0,62,30.15,10.0,South,5.8,-,N/A,,Mostly Cloudy,180,2013-04-28 19:35:00
12:55 PM,53.6,41.0,62,30.14,10.0,SSW,12.7,17.3,N/A,,Partly Cloudy,210,2013-04-28 19:55:00
1:15 PM,53.6,39.2,58,30.14,10.0,South,8.1,17.3,N/A,,Partly Cloudy,180,2013-04-28 20:15:00
1:35 PM,55.4,41.0,58,30.14,10.0,SSW,17.3,23.0,N/A,,Partly Cloudy,200,2013-04-28 20:35:00
1:55 PM,55.4,39.2,54,30.14,10.0,South,12.7,21.9,N/A,,Clear,190,2013-04-28 20:55:00
2:15 PM,55.4,39.2,54,30.13,10.0,South,16.1,26.5,N/A,,Clear,190,2013-04-28 21:15:00
2:35 PM,55.4,39.2,54,30.12,10.0,South,15.0,25.3,N/A,,Clear,190,2013-04-28 21:35:00
2:55 PM,55.4,39.2,54,30.12,10.0,South,9.2,20.7,N/A,,Clear,180,2013-04-28 21:55:00
3:15 PM,53.6,39.2,58,30.11,10.0,South,11.5,19.6,N/A,,Clear,190,2013-04-28 22:15:00
3:55 PM,53.6,39.2,58,30.10,10.0,South,12.7,18.4,N/A,,Clear,190,2013-04-28 22:55:00
4:15 PM,51.8,39.2,62,30.09,10.0,SSW,11.5,16.1,N/A,,Clear,200,2013-04-28 23:15:00
4:35 PM,51.8,39.2,62,30.09,10.0,South,11.5,16.1,N/A,,Clear,190,2013-04-28 23:35:00
4:55 PM,51.8,39.2,62,30.09,10.0,South,8.1,-,N/A,,Clear,180,2013-04-28 23:55:00
5:15 PM,51.8,39.2,62,30.08,10.0,South,9.2,-,N/A,,Clear,190,2013-04-29 00:15:00
5:35 PM,51.8,39.2,62,30.07,10.0,South,5.8,-,N/A,,Clear,180,2013-04-29 00:35:00
5:55 PM,51.8,39.2,62,30.06,10.0,South,8.1,-,N/A,,Clear,180,2013-04-29 00:55:00
6:15 PM,50.0,39.2,66,30.04,10.0,South,8.1,-,N/A,,Clear,180,2013-04-29 01:15:00
6:35 PM,50.0,39.2,66,30.03,10.0,South,6.9,-,N/A,,Clear,170,2013-04-29 01:35:00
6:55 PM,50.0,41.0,71,30.02,10.0,South,9.2,-,N/A,,Clear,190,2013-04-29 01:55:00
7:15 PM,50.0,41.0,71,30.01,10.0,SSW,6.9,-,N/A,,Clear,200,2013-04-29 02:15:00
7:35 PM,50.0,39.2,66,29.99,10.0,SSW,9.2,-,N/A,,Clear,210,2013-04-29 02:35:00
7:55 PM,50.0,41.0,71,29.98,10.0,SW,6.9,-,N/A,,Partly Cloudy,220,2013-04-29 02:55:00
8:15 PM,50.0,39.2,66,29.98,10.0,SW,3.5,-,N/A,,Partly Cloudy,230,2013-04-29 03:15:00
8:35 PM,50.0,41.0,71,29.96,10.0,SW,6.9,-,N/A,,Partly Cloudy,220,2013-04-29 03:35:00
8:55 PM,48.2,41.0,76,29.95,10.0,SW,8.1,-,N/A,,Partly Cloudy,220,2013-04-29 03:55:00
9:15 PM,48.2,41.0,76,29.96,10.0,Calm,Calm,-,N/A,,Scattered Clouds,0,2013-04-29 04:15:00
9:35 PM,48.2,42.8,82,29.97,10.0,West,5.8,-,N/A,,Mostly Cloudy,260,2013-04-29 04:35:00
9:55 PM,46.4,44.6,93,29.95,7.0,SW,8.1,-,N/A,Rain,Light Rain,220,2013-04-29 04:55:00
10:15 PM,46.4,44.6,93,29.94,4.0,SSW,6.9,-,N/A,Rain,Light Rain,210,2013-04-29 05:15:00
10:35 PM,46.4,44.6,93,29.93,6.0,Calm,Calm,-,N/A,Rain,Light Rain,0,2013-04-29 05:35:00
10:55 PM,46.4,44.6,93,29.93,8.0,SSW,3.5,-,N/A,Rain,Light Rain,210,2013-04-29 05:55:00
11:15 PM,46.4,44.6,93,29.92,10.0,SSW,6.9,-,N/A,Rain,Light Rain,210,2013-04-29 06:15:00
11:35 PM,46.4,44.6,93,29.91,10.0,South,5.8,-,N/A,,Overcast,180,2013-04-29 06:35:00
11:55 PM,46.4,44.6,93,29.90,10.0,SSW,5.8,-,N/A,,Overcast,200,2013-04-29 06:55:00